Location: Pedimozza
(42.0500°N, 9.3500°E)
Time: 03:49:26
(UTC+00:00)

Cosmos 1536 - Pass Details

Date: 19 August 2019
Orbit: 540 x 559 km, 82.5° (Epoch: 19 September)

Event Time Altitude Azimuth Distance (km) Brightness Sun altitude
Exits shadow 19:52:51 23° 80° (E) 1,210 4.2 -16.6°
Drops below altitude 10° 19:55:45 10° 36° (NE) 1,855 5.5 -17.0°
Sets 19:58:14 0° 22° (NNE) 2,755 6.6 -17.4°
